Wind_Speed
44 49 58 64 74 83 90 104 119 124 128 131 127 119 115 109 101 94 90 84 83 83 76 71 68 62 58 54 51 48 44 39 41 38 35 37 38 37 35 28 30 25 24 24 26 31 35 39 44 45 47 50 51 51
46 55 60 69 78 83 95 109 122 125 126 121 118 113 108 104 97 90 88 90 90 77 74 67 64 63 58 53 46 43 40 42 38 33 35 37 38 34 29 29 27 25 24 26 28 33 36 40 44 46 50 51 51 51
54 63 66 74 81 91 103 117 123 123 121 118 118 113 108 97 94 96 88 88 80 73 70 69 65 61 55 51 49 46 44 40 34 33 38 40 38 32 30 30 26 24 23 27 29 33 35 39 44 47 48 50 50 50
60 64 71 79 86 96 104 109 114 117 120 118 116 113 109 109 97 92 90 80 75 72 67 62 60 55 53 52 50 43 40 40 35 36 40 40 35 29 31 29 25 23 22 26 30 32 35 40 43 49 48 48 48 47
63 67 76 84 93 102 112 119 119 120 121 119 112 106 102 99 95 91 84 79 75 75 66 62 58 57 54 49 46 44 41 38 38 37 44 41 34 29 32 29 23 23 21 26 30 31 37 42 47 50 47 45 45 44
65 72 80 91 100 107 114 120 120 117 118 111 106 101 97 93 88 87 84 79 77 72 70 69 62 58 53 50 47 45 40 40 35 43 41 34 27 31 33 28 22 23 20 25 28 33 40 44 49 50 49 43 43 42
69 77 82 90 102 111 115 113 111 105 109 107 101 98 94 91 86 82 77 75 76 71 69 66 62 56 52 51 49 42 42 38 41 42 38 32 26 33 33 24 17 21 20 23 29 37 43 46 51 52 47 45 41 38
74 82 93 101 106 109 107 108 110 109 108 105 101 97 91 88 85 80 79 77 76 70 67 62 56 52 50 49 45 43 41 38 40 39 33 27 32 35 30 15 15 17 21 25 30 38 43 48 50 50 47 37 32 30
89 97 103 107 108 110 110 105 106 108 106 101 98 96 94 92 87 84 80 79 78 73 63 57 53 51 51 48 45 42 41 38 37 32 28 32 34 36 23 14 16 17 22 24 31 38 44 49 50 46 36 26 23 23
96 107 112 117 116 111 107 101 102 107 104 103 99 96 94 90 87 82 80 80 73 66 61 57 54 51 49 48 45 45 39 36 33 29 35 36 36 33 21 17 17 17 18 24 33 38 42 41 43 34 27 21 21 21
83 90 100 112 110 115 112 107 101 105 106 104 101 100 96 91 86 83 83 79 72 63 57 54 50 48 45 46 46 41 37 35 29 33 41 36 38 30 20 20 15 14 17 25 32 35 41 39 33 22 19 19 18 17
70 82 90 86 87 99 108 107 104 104 99 94 88 86 89 89 88 89 84 74 62 55 52 51 50 49 48 48 42 38 37 33 30 43 41 41 39 24 23 18 14 12 16 23 29 33 38 37 25 16 20 23 23 25
67 76 78 83 96 105 106 102 101 96 95 93 95 93 89 89 89 80 70 55 48 49 50 50 51 52 50 44 40 39 34 31 37 47 44 47 33 27 22 18 12 11 15 19 28 30 34 30 23 21 21 22 23 27
73 80 87 95 102 101 99 97 95 93 90 91 91 90 90 85 74 65 55 52 53 54 53 52 54 52 47 43 41 37 34 35 44 49 50 44 31 28 24 20 13 12 14 19 24 27 27 28 27 24 25 25 27 30
92 95 99 105 103 101 99 96 93 91 90 91 89 85 78 69 64 59 56 55 58 57 56 55 52 47 46 45 40 38 38 41 52 56 51 43 34 31 27 22 15 14 16 20 20 23 24 26 27 27 28 30 31 33
94 98 101 103 100 95 94 92 90 89 87 85 81 76 71 66 63 59 59 61 60 56 54 53 49 49 48 42 42 41 43 55 58 52 50 45 36 34 27 23 18 17 17 17 20 23 23 25 28 29 31 32 34 36
84 85 87 87 85 86 86 87 87 86 83 77 72 70 69 65 62 64 62 61 59 58 56 53 53 51 47 42 44 45 53 59 55 50 47 43 37 35 30 25 20 20 19 21 21 22 26 27 28 30 30 33 36 37
81 82 83 84 84 82 81 81 82 80 75 71 69 66 65 65 64 62 62 63 62 60 57 54 53 50 48 47 49 47 59 63 57 49 47 45 42 39 35 29 25 24 22 25 25 24 25 29 30 31 32 33 36 39
80 81 82 82 82 81 79 77 74 71 66 65 67 69 68 66 66 66 66 65 64 60 58 56 53 53 53 50 49 51 62 66 60 52 50 53 50 42 39 34 30 28 25 27 29 28 27 29 31 33 35 36 37 40
76 76 77 77 76 76 76 73 70 70 71 71 69 68 67 68 68 68 66 65 62 60 57 55 57 58 53 50 50 56 65 67 61 57 53 54 54 45 42 38 36 33 29 29 31 32 32 32 34 35 36 39 40 41
76 77 75 74 75 75 74 74 72 70 67 68 69 70 69 70 69 68 66 63 62 59 57 59 60 58 54 50 52 59 67 66 63 59 55 55 58 57 49 44 41 37 34 33 32 34 35 38 38 39 42 43 44 45
75 77 76 76 76 74 73 73 71 70 71 71 72 72 73 71 70 70 69 67 63 62 61 62 62 59 55 52 55 62 68 65 60 60 59 56 58 59 53 48 44 40 37 37 37 36 37 41 41 42 45 47 48 50
78 77 78 79 79 78 77 77 76 76 75 74 74 75 74 72 71 72 71 67 63 63 64 64 61 57 55 54 57 66 70 66 63 61 61 58 61 61 57 54 49 43 41 40 41 42 42 44 44 45 47 48 50 51
82 84 85 84 82 81 79 78 77 77 77 77 76 74 75 75 76 75 69 66 65 68 66 64 62 59 57 57 61 69 73 68 65 64 63 62 63 65 62 56 54 51 48 46 44 44 46 46 47 49 50 51 52 53
87 88 88 87 85 84 83 81 79 79 78 78 77 76 76 78 77 73 69 66 70 69 67 65 63 60 59 61 63 69 72 72 68 65 63 65 64 63 65 64 56 53 52 53 50 48 49 49 51 53 52 53 53 53
91 91 89 87 85 85 84 85 84 83 83 83 83 81 82 82 79 74 70 68 73 72 72 70 66 63 60 62 66 72 72 74 71 67 68 68 63 63 67 67 65 60 58 56 55 53 53 55 56 56 58 55 57 59
89 87 87 89 89 90 90 90 88 88 88 88 86 87 87 85 80 74 74 76 79 79 76 71 67 64 63 65 69 73 74 74 73 73 72 71 67 63 65 67 69 66 63 60 60 59 59 57 59 62 67 65 66 68
81 84 86 88 89 89 90 91 90 92 91 90 90 90 88 84 80 80 80 82 83 83 80 73 69 64 64 67 72 74 74 77 79 76 74 74 71 68 67 69 70 69 69 69 67 67 66 65 66 68 70 71 70 72
71 77 85 87 89 89 90 90 90 91 90 90 90 90 89 89 89 88 88 87 84 80 76 72 70 66 66 70 74 74 75 77 80 82 81 79 76 75 70 70 73 74 72 71 71 71 71 74 73 73 75 78 78 77
67 69 72 75 80 85 92 95 95 96 97 97 95 92 89 88 90 90 88 86 84 80 76 75 73 70 69 73 77 76 77 77 78 81 84 84 82 79 75 76 77 78 77 76 73 73 74 74 76 78 80 81 83 83
75 74 72 70 69 70 77 86 92 94 95 96 95 93 93 94 92 90 87 85 84 81 77 76 77 75 74 77 80 81 79 78 78 79 80 84 84 83 82 81 80 82 81 80 80 79 78 77 79 79 81 83 84 84
83 81 78 75 73 74 76 76 78 81 83 85 87 91 93 92 91 90 86 85 85 83 82 81 80 80 82 82 82 83 82 79 79 80 78 80 82 84 86 86 85 85 84 83 83 85 83 82 82 82 81 83 84 86
90 87 85 83 81 79 77 76 75 73 74 76 77 78 81 85 86 85 85 84 83 83 84 85 86 85 85 85 84 82 81 80 80 81 81 80 81 84 86 88 90 92 91 90 88 89 88 87 87 88 90 91 92 92
Wind_Direction
180 177 182 179 178 180 178 178 180 183 184 187 188 190 193 196 201 202 202 202 206 210 212 215 219 219 226 232 235 238 243 251 260 270 279 279 275 279 277 263 242 250 267 279 297 303 311 317 322 321 320 320 320 320
172 173 176 174 175 173 175 177 179 183 186 185 186 189 192 196 197 200 202 204 208 209 212 216 219 221 228 235 242 245 245 249 257 267 273 270 276 278 264 242 245 254 271 284 296 306 312 321 323 322 321 320 320 321
167 174 172 172 170 170 171 174 180 182 182 182 184 189 191 192 197 194 200 203 207 209 211 214 216 220 224 229 232 232 238 249 257 263 268 272 279 274 239 237 246 261 276 289 300 309 316 322 323 325 325 323 320 320
170 171 169 167 168 169 169 175 178 180 181 183 185 189 189 191 192 199 205 206 207 210 215 216 219 223 227 231 233 237 243 248 256 263 266 274 278 252 234 239 250 263 281 294 303 311 319 323 327 328 324 321 322 323
169 167 165 166 167 168 168 173 179 183 180 183 186 188 189 194 198 201 203 207 208 211 212 216 219 221 226 230 232 237 243 251 259 262 267 276 269 237 232 239 251 265 287 295 301 311 320 324 326 329 327 323 322 322
163 161 164 165 167 168 170 177 181 183 179 181 184 187 189 193 197 202 205 206 209 210 212 215 218 221 223 227 231 238 243 253 259 265 271 268 254 229 232 240 252 270 289 291 305 317 322 328 327 324 325 321 318 322
163 163 163 163 165 170 175 179 182 176 177 181 184 186 189 192 197 203 205 209 209 210 212 213 216 220 224 229 233 238 246 256 260 267 269 260 231 223 233 237 259 273 286 298 313 324 324 326 322 322 323 316 319 324
162 160 162 163 167 171 175 179 176 175 178 179 182 186 187 191 196 200 202 205 208 210 213 214 216 220 226 230 234 241 249 254 261 265 263 238 209 227 233 231 249 275 291 306 329 326 328 329 325 323 322 323 324 328
161 161 163 163 165 172 178 178 171 174 175 178 182 185 188 192 194 197 200 203 208 210 211 213 216 220 225 230 236 243 248 253 263 263 240 202 216 233 223 220 245 278 300 333 334 333 335 332 329 326 325 325 329 333
162 164 163 165 169 173 176 174 172 175 175 178 181 185 189 190 193 196 203 206 209 208 209 212 216 222 226 231 237 244 249 257 259 245 206 206 228 224 215 218 250 282 319 336 334 335 347 337 329 335 335 341 350 346
169 169 168 173 175 176 174 173 172 175 177 180 183 186 188 191 193 197 204 205 207 205 207 211 219 226 230 236 240 245 252 253 252 222 203 215 229 218 204 226 253 287 328 337 335 339 352 351 339 348 1 6 11 32
169 170 175 175 170 169 168 172 174 178 180 183 185 187 190 192 195 200 204 205 204 206 210 215 221 227 233 237 242 248 253 257 242 207 207 224 218 203 215 234 253 296 329 335 343 351 356 1 353 17 57 66 66 60
167 170 167 164 166 168 171 173 177 178 181 183 187 190 194 197 201 202 205 205 205 210 214 217 222 228 234 239 245 252 257 260 225 204 216 224 210 204 219 231 247 293 319 334 341 350 355 360 22 35 44 49 46 39
155 160 164 166 168 170 171 175 178 180 182 186 191 193 196 199 200 201 199 202 208 211 215 219 225 231 236 241 249 253 259 248 211 210 221 218 210 211 221 230 241 279 304 324 337 346 356 2 6 6 13 17 20 24
159 160 163 166 169 173 175 177 180 182 185 189 192 195 199 197 198 197 200 207 212 215 218 222 229 234 239 244 251 255 251 224 213 214 217 210 208 212 222 232 244 268 291 314 329 336 338 345 352 359 1 3 4 9
162 165 165 168 171 174 178 181 184 187 190 193 195 196 198 200 198 200 207 210 212 215 221 227 231 235 240 247 249 249 235 219 212 215 216 213 208 213 223 232 244 263 284 301 315 326 331 336 343 346 352 353 355 1
161 163 167 169 174 178 182 185 188 191 194 195 195 197 198 200 202 205 206 210 213 218 223 228 233 238 244 248 248 244 225 209 212 216 215 214 216 219 228 232 243 259 276 289 301 315 323 327 332 341 341 342 349 352
167 170 173 176 178 181 184 189 192 194 195 196 197 197 199 202 204 205 208 213 217 222 226 232 237 241 247 248 247 237 217 210 214 215 210 213 214 220 229 233 242 254 269 281 291 304 314 321 324 329 335 338 338 338
173 175 178 181 184 187 190 193 193 194 195 196 198 200 201 204 206 209 211 216 221 225 230 234 238 245 248 248 245 229 217 213 216 216 217 219 221 221 229 234 241 251 262 275 283 292 303 310 316 322 324 327 332 334
180 181 183 186 188 191 192 193 194 195 197 199 201 202 203 206 209 214 218 222 226 229 232 237 241 245 248 246 240 226 217 215 218 220 222 222 227 229 233 238 242 251 261 268 277 287 294 302 310 314 317 321 323 326
185 187 189 192 194 196 196 196 197 198 201 202 203 204 206 210 214 219 223 227 230 233 236 239 243 246 246 244 235 225 218 217 219 224 225 228 230 234 236 241 245 251 260 269 273 280 289 295 300 307 311 314 320 322
192 193 195 197 200 200 199 200 201 201 201 203 206 209 211 214 218 222 226 229 231 233 236 240 244 245 243 240 232 225 219 218 224 227 229 231 231 234 236 240 245 249 260 270 276 278 281 289 297 300 306 312 315 319
197 200 203 204 204 203 201 202 202 203 205 208 211 213 215 218 222 227 230 231 233 236 238 242 245 245 245 242 232 223 219 220 225 228 231 235 233 234 238 241 247 254 259 264 273 278 282 287 292 296 305 312 314 316
203 204 205 207 207 208 206 207 208 209 210 213 214 216 219 222 225 228 229 232 235 238 240 243 244 245 245 242 230 223 221 223 227 229 233 236 234 236 239 244 247 252 260 266 271 274 278 282 286 292 300 309 312 315
206 207 208 210 210 210 209 211 213 214 215 216 218 220 223 225 228 230 232 234 237 239 241 242 243 246 245 239 229 225 224 225 227 231 235 237 237 241 241 242 246 252 258 263 269 276 278 280 284 291 295 303 307 310
214 213 213 213 215 216 216 215 215 216 218 220 222 224 225 228 230 230 233 235 237 238 240 240 242 246 245 238 231 226 226 228 229 232 235 237 240 242 243 245 248 252 257 262 267 271 275 279 285 287 287 293 300 307
216 216 218 219 219 219 219 220 221 222 221 222 221 223 226 228 229 230 232 234 236 238 238 240 243 246 244 237 232 229 228 230 232 234 236 237 240 245 247 249 249 251 257 262 266 270 272 276 282 283 287 291 294 300
219 218 219 222 223 223 221 223 223 223 223 223 224 226 228 229 231 232 233 233 234 236 238 240 243 245 241 235 233 231 231 232 233 235 237 239 241 246 249 249 250 252 257 262 264 268 273 275 278 283 287 290 294 298
220 221 223 224 224 224 226 227 227 227 229 231 231 231 232 232 232 233 233 234 235 236 240 243 245 245 240 235 234 233 233 234 235 237 238 241 243 246 250 252 251 252 258 262 264 270 272 274 277 280 284 287 290 295
223 223 223 225 226 227 228 230 230 231 230 230 230 233 236 237 237 236 236 236 237 238 240 242 245 246 240 236 235 236 235 236 237 239 240 242 245 250 252 253 253 254 258 262 265 273 277 277 277 279 281 285 288 290
223 225 225 226 226 225 226 228 230 231 231 233 234 233 232 233 235 237 237 238 239 240 241 240 243 244 239 236 235 236 237 238 239 241 243 244 247 251 252 254 255 255 258 262 265 271 275 276 279 283 284 286 288 291
225 225 225 225 226 227 227 228 229 230 230 230 231 231 232 232 232 233 235 236 237 239 239 239 240 238 236 235 235 236 238 240 242 244 246 248 249 250 252 254 255 256 261 266 268 270 276 277 278 281 284 286 288 290
229 228 227 226 226 228 231 232 231 230 230 231 230 231 231 231 232 234 235 235 235 235 237 238 237 234 232 233 235 237 239 240 242 244 247 249 250 251 253 254 256 259 262 265 268 270 273 276 279 282 284 286 287 290
Height
9992 10008 10019 10037 10054 10072 10100 10127 10154 10185 10218 10243 10277 10309 10333 10357 10381 10407 10428 10442 10452 10460 10476 10492 10505 10517 10524 10531 10537 10543 10551 10555 10555 10558 10559 10559 10558 10558 10557 10556 10556 10558 10558 10556 10553 10549 10545 10539 10530 10521 10513 10504 10496 10488
9994 10007 10019 10037 10056 10077 10104 10130 10156 10185 10216 10253 10285 10312 10336 10358 10382 10400 10417 10427 10436 10458 10473 10491 10501 10507 10519 10527 10536 10542 10546 10546 10550 10552 10551 10551 10551 10551 10550 10550 10552 10553 10553 10550 10547 10545 10539 10532 10523 10514 10505 10496 10489 10482
9996 10005 10021 10041 10061 10082 10110 10134 10159 10190 10225 10259 10283 10309 10336 10359 10377 10396 10406 10420 10439 10455 10470 10478 10491 10503 10510 10519 10526 10531 10534 10541 10544 10544 10544 10543 10544 10544 10544 10546 10548 10548 10546 10544 10542 10538 10532 10524 10517 10508 10499 10490 10482 10475
9997 10012 10030 10049 10069 10092 10116 10142 10172 10202 10232 10258 10284 10306 10333 10351 10371 10387 10401 10423 10437 10454 10469 10481 10489 10500 10507 10513 10519 10526 10530 10533 10536 10537 10536 10536 10537 10538 10540 10542 10543 10543 10542 10539 10536 10531 10525 10518 10510 10501 10492 10483 10475 10468
10005 10022 10042 10059 10078 10102 10126 10151 10177 10200 10233 10259 10285 10310 10333 10353 10368 10384 10401 10418 10434 10445 10465 10474 10484 10490 10498 10508 10513 10518 10522 10526 10528 10529 10528 10529 10529 10532 10535 10537 10539 10538 10538 10535 10531 10525 10517 10511 10503 10494 10484 10476 10469 10462
10017 10035 10052 10071 10090 10111 10137 10156 10180 10204 10240 10267 10291 10314 10336 10356 10372 10383 10399 10414 10428 10444 10452 10463 10477 10484 10493 10500 10506 10511 10515 10518 10521 10520 10521 10521 10522 10526 10530 10532 10534 10533 10534 10530 10525 10519 10511 10504 10495 10486 10477 10470 10463 10457
10026 10042 10061 10082 10103 10123 10144 10167 10189 10222 10248 10271 10295 10317 10337 10355 10369 10385 10407 10419 10426 10436 10447 10456 10468 10479 10487 10493 10498 10504 10508 10512 10513 10513 10513 10514 10517 10521 10524 10528 10531 10528 10528 10525 10520 10513 10506 10497 10487 10477 10469 10462 10456 10452
10037 10058 10073 10091 10110 10132 10153 10174 10195 10225 10250 10277 10299 10317 10337 10352 10365 10380 10392 10403 10415 10430 10443 10456 10467 10475 10482 10488 10493 10497 10501 10505 10506 10506 10505 10508 10512 10515 10518 10526 10525 10524 10523 10520 10513 10507 10499 10489 10479 10469 10461 10454 10450 10447
10052 10066 10082 10102 10121 10139 10156 10175 10207 10230 10257 10281 10299 10316 10332 10346 10361 10373 10388 10398 10406 10426 10443 10453 10462 10469 10474 10480 10485 10490 10495 10498 10498 10498 10499 10504 10507 10507 10517 10520 10520 10518 10516 10511 10506 10500 10492 10480 10470 10460 10453 10448 10445 10443
10059 10071 10087 10107 10122 10145 10167 10189 10217 10236 10257 10275 10292 10310 10326 10343 10358 10372 10381 10393 10408 10425 10437 10447 10455 10461 10468 10473 10479 10483 10488 10490 10490 10490 10493 10499 10500 10505 10511 10514 10514 10513 10510 10505 10501 10495 10486 10474 10464 10455 10450 10446 10442 10440
10069 10081 10095 10112 10128 10148 10174 10200 10221 10240 10255 10270 10287 10308 10325 10340 10354 10366 10374 10390 10405 10423 10435 10443 10450 10457 10462 10468 10471 10476 10479 10480 10482 10484 10488 10491 10491 10500 10506 10507 10508 10508 10504 10500 10496 10490 10481 10471 10461 10453 10448 10444 10440 10437
10078 10094 10108 10122 10141 10165 10187 10206 10228 10244 10267 10288 10306 10318 10327 10337 10347 10355 10372 10391 10410 10423 10431 10438 10444 10449 10454 10457 10464 10467 10470 10472 10474 10477 10483 10482 10487 10497 10499 10502 10502 10501 10497 10495 10491 10484 10477 10468 10460 10454 10448 10444 10441 10437
10092 10106 10120 10139 10162 10180 10198 10218 10237 10256 10272 10285 10294 10308 10321 10334 10346 10367 10386 10405 10418 10422 10425 10430 10434 10438 10442 10450 10455 10459 10462 10463 10465 10473 10473 10471 10485 10491 10493 10495 10495 10494 10492 10490 10486 10480 10474 10468 10462 10457 10451 10445 10441 10437
10108 10126 10140 10157 10175 10195 10213 10227 10243 10258 10273 10287 10298 10311 10319 10338 10361 10380 10394 10399 10402 10405 10412 10418 10422 10429 10436 10443 10448 10449 10452 10454 10458 10461 10459 10471 10483 10485 10487 10488 10488 10488 10487 10484 10480 10477 10472 10467 10462 10458 10452 10447 10442 10435
10120 10134 10150 10168 10185 10198 10213 10230 10245 10258 10269 10283 10297 10309 10328 10349 10364 10376 10384 10387 10391 10397 10403 10408 10417 10424 10429 10434 10437 10440 10442 10443 10443 10443 10452 10465 10474 10477 10479 10481 10482 10481 10481 10478 10475 10472 10469 10464 10460 10455 10450 10445 10439 10433
10129 10142 10160 10176 10190 10208 10222 10235 10248 10261 10275 10288 10303 10320 10333 10347 10358 10367 10372 10376 10381 10387 10393 10403 10410 10416 10419 10425 10427 10429 10429 10425 10432 10442 10450 10461 10467 10469 10472 10474 10474 10474 10473 10472 10470 10467 10463 10460 10456 10451 10445 10440 10436 10430
10152 10165 10175 10188 10204 10217 10228 10239 10251 10264 10278 10292 10306 10318 10330 10339 10347 10354 10361 10365 10371 10377 10387 10395 10400 10405 10411 10416 10416 10414 10414 10426 10433 10440 10449 10457 10461 10462 10465 10466 10467 10467 10467 10466 10464 10460 10457 10454 10450 10445 10441 10436 10430 10425
10163 10174 10185 10196 10207 10219 10231 10243 10256 10270 10282 10295 10305 10315 10323 10331 10338 10346 10351 10356 10362 10371 10379 10388 10392 10398 10402 10403 10401 10405 10410 10418 10424 10432 10441 10446 10449 10452 10456 10457 10459 10460 10460 10458 10456 10454 10450 10447 10443 10439 10435 10431 10425 10420
10168 10178 10189 10201 10211 10221 10234 10244 10256 10270 10282 10291 10299 10308 10316 10323 10329 10333 10338 10346 10355 10366 10373 10378 10385 10388 10387 10389 10392 10396 10402 10410 10417 10424 10430 10433 10436 10442 10445 10448 10450 10450 10451 10450 10448 10446 10443 10440 10436 10431 10427 10424 10420 10414
10171 10182 10190 10200 10210 10218 10229 10242 10253 10263 10273 10283 10290 10299 10307 10313 10318 10324 10331 10338 10348 10355 10363 10370 10372 10371 10375 10379 10382 10387 10393 10401 10409 10415 10420 10424 10428 10433 10436 10438 10439 10440 10441 10441 10440 10439 10435 10432 10429 10425 10420 10417 10413 10407
10171 10179 10190 10200 10208 10216 10228 10238 10247 10257 10266 10274 10282 10289 10297 10303 10309 10315 10323 10331 10340 10349 10355 10355 10355 10360 10364 10368 10372 10377 10385 10392 10399 10405 10410 10414 10419 10422 10426 10428 10429 10430 10431 10431 10430 10429 10427 10423 10420 10417 10413 10409 10404 10399
10168 10175 10184 10190 10196 10207 10219 10228 10239 10249 10256 10264 10270 10277 10285 10291 10297 10304 10311 10322 10332 10337 10340 10340 10343 10348 10352 10357 10361 10366 10374 10382 10387 10392 10397 10401 10406 10410 10415 10417 10417 10418 10419 10420 10419 10419 10417 10414 10411 10408 10404 10400 10396 10390
10158 10165 10171 10175 10184 10195 10206 10215 10225 10234 10242 10252 10258 10264 10272 10281 10290 10295 10302 10315 10322 10324 10325 10327 10331 10336 10341 10345 10349 10355 10362 10369 10375 10380 10385 10389 10394 10399 10402 10405 10406 10407 10408 10408 10407 10406 10405 10403 10401 10398 10394 10390 10385 10379
10145 10150 10157 10166 10176 10186 10199 10207 10217 10225 10233 10239 10247 10257 10263 10270 10274 10282 10295 10303 10307 10305 10311 10314 10319 10324 10329 10332 10335 10341 10349 10357 10362 10367 10371 10376 10382 10385 10389 10391 10393 10394 10396 10396 10395 10395 10393 10391 10388 10385 10382 10378 10373 10368
10128 10134 10142 10153 10165 10176 10187 10197 10206 10216 10224 10230 10238 10245 10252 10256 10263 10274 10283 10290 10288 10291 10294 10300 10306 10310 10312 10314 10321 10327 10335 10342 10347 10353 10358 10363 10369 10371 10373 10377 10379 10380 10382 10382 10382 10382 10379 10377 10375 10372 10369 10366 10361 10356
10114 10123 10134 10148 10158 10167 10177 10185 10192 10199 10207 10214 10220 10231 10236 10242 10249 10260 10269 10274 10270 10275 10279 10284 10289 10294 10299 10302 10306 10313 10319 10327 10335 10340 10341 10347 10353 10356 10360 10362 10364 10366 10368 10369 10369 10367 10365 10363 10361 10359 10355 10352 10348 10343
10098 10113 10124 10134 10142 10149 10158 10166 10174 10180 10186 10194 10204 10210 10214 10221 10234 10247 10250 10252 10253 10253 10260 10267 10275 10281 10283 10287 10293 10298 10306 10312 10318 10319 10325 10332 10337 10340 10343 10345 10348 10351 10352 10353 10352 10352 10351 10348 10346 10344 10340 10337 10334 10329
10089 10100 10108 10115 10122 10130 10138 10145 10153 10159 10168 10177 10184 10191 10199 10210 10220 10224 10228 10230 10233 10235 10241 10251 10259 10265 10268 10273 10278 10284 10291 10296 10301 10306 10312 10316 10320 10323 10327 10329 10333 10335 10337 10337 10337 10337 10335 10333 10331 10329 10326 10322 10318 10314
10077 10084 10087 10095 10100 10110 10121 10129 10137 10144 10153 10159 10166 10173 10181 10186 10192 10197 10202 10209 10219 10227 10233 10238 10244 10249 10254 10258 10262 10269 10274 10280 10286 10291 10295 10299 10304 10306 10311 10315 10316 10318 10320 10321 10321 10320 10319 10317 10315 10312 10309 10305 10302 10297
10059 10063 10068 10075 10083 10092 10101 10106 10110 10113 10120 10127 10137 10147 10158 10168 10173 10181 10190 10198 10206 10212 10219 10224 10228 10232 10236 10241 10246 10252 10257 10263 10270 10273 10278 10282 10285 10290 10294 10296 10299 10300 10302 10302 10303 10303 10301 10299 10297 10294 10291 10287 10283 10280
10034 10041 10048 10057 10065 10072 10075 10076 10080 10087 10095 10105 10114 10126 10135 10141 10149 10160 10171 10181 10188 10194 10202 10207 10210 10212 10217 10222 10227 10233 10239 10245 10251 10255 10260 10264 10268 10271 10275 10277 10278 10281 10283 10284 10284 10283 10282 10280 10278 10275 10272 10268 10265 10261
10010 10019 10028 10037 10044 10047 10047 10053 10060 10068 10075 10083 10092 10102 10112 10119 10129 10139 10149 10157 10166 10174 10178 10182 10187 10189 10194 10202 10209 10215 10221 10227 10232 10237 10241 10244 10248 10252 10255 10256 10258 10260 10262 10263 10263 10263 10262 10260 10258 10255 10253 10249 10245 10241
9987 9996 10005 10011 10018 10024 10031 10035 10041 10049 10058 10067 10076 10083 10090 10100 10112 10121 10127 10136 10143 10148 10153 10156 10160 10166 10176 10184 10190 10197 10203 10208 10212 10216 10220 10224 10230 10234 10235 10237 10239 10241 10242 10243 10242 10242 10241 10240 10238 10236 10232 10229 10225 10220